CONSULTA PERSONALIZADA Alfaro
      Predicción AEMET      
Valores extremos - medios de hoy
Fecha T (C) P (l/m2) Hr (%) Rs (W/m2) VV (km/h) DV Tint.(C)
Max Med Min Acu Med Med Max Med Max Med Min
 26-03-2017   14,9   7,9   5,6   0,0   84   219   32,8   130   17,8   15,5   14,4 
Datos de hoy
Fecha T (C) P (l/m2) Hr (%) Rs (W/m2) VV (km/h) DV Tint.(C)
Max Med Min Acu Med Med Max Med Max Med Min
 26-03-2017 13:45:00   14,9   14,3   13,8   0,0   63   799   29,2   133   17,8   17,4   16,8 
 26-03-2017 13:30:00   14,9   13,9   13,2   0,0   66   921   27,7   136   17,0   16,8   16,5 
 26-03-2017 13:15:00   13,4   13,1   12,8   0,0   69   590   25,9   135   17,1   16,7   16,3 
 26-03-2017 13:00:00   13,7   13,1   12,5   0,0   69   701   27,7   136   16,5   16,4   16,3 
 26-03-2017 12:45:00   12,9   12,2   11,8   0,0   71   657   31,3   134   16,3   16,2   16,0 
 26-03-2017 12:30:00   12,8   12,2   11,7   0,0   71   786   27,4   135   16,3   16,1   15,9 
 26-03-2017 12:15:00   11,7   11,2   10,9   0,0   75   368   25,6   135   16,4   15,9   15,7 
 26-03-2017 12:00:00   11,0   10,8   10,6   0,0   76   304   25,2   130   16,8   16,2   15,4 
 26-03-2017 11:45:00   11,3   11,0   10,8   0,0   75   738   29,5   133   16,4   16,0   15,4 
 26-03-2017 11:30:00   11,0   10,7   10,4   0,0   75   724   31,0   134   16,3   15,7   15,2 
 26-03-2017 11:15:00   10,7   10,3   9,9   0,0   76   683   29,5   131   16,2   15,5   15,0 
 26-03-2017 11:00:00   10,5   10,1   9,7   0,0   76   720   24,5   127   16,2   15,6   15,0 
 26-03-2017 10:45:00   10,2   9,8   9,5   0,0   76   705   27,0   127   15,2   15,1   14,9 
 26-03-2017 10:30:00   9,8   9,4   8,9   0,0   76   576   28,4   125   15,6   15,0   14,8 
 26-03-2017 10:15:00   9,5   9,1   8,8   0,0   78   437   26,3   128   15,8   15,2   14,8 
 26-03-2017 10:00:00   8,9   8,7   8,5   0,0   80   261   28,1   133   15,0   14,8   14,6 
 26-03-2017 09:45:00   8,9   8,7   8,6   0,0   80   285   25,2   129   15,5   15,1   14,5 
 26-03-2017 09:30:00   8,7   8,6   8,3   0,0   83   339   25,2   131   15,3   15,0   14,5 
 26-03-2017 09:15:00   8,3   7,8   7,6   0,0   86   223   32,8   125   14,9   14,7   14,5 
 26-03-2017 09:00:00   7,6   7,5   7,3   0,0   86   175   22,7   125   15,6   15,2   14,7 
 26-03-2017 08:45:00   7,4   7,2   7,0   0,0   87   180   27,0   129   15,6   15,1   14,6 
 26-03-2017 08:30:00   7,0   6,9   6,9   0,0   88   60   22,0   125   15,7   15,0   14,5 
 26-03-2017 08:15:00   7,0   6,7   6,3   0,0   90   39   23,0   118   15,9   15,2   14,4 
 26-03-2017 08:00:00   6,4   6,3   6,3   0,0   92   59   19,4   108   15,6   15,1   14,5 
 26-03-2017 07:45:00   6,3   6,3   6,1   0,0   92   51   21,6   121   14,7   14,6   14,4 
 26-03-2017 07:30:00   6,3   6,1   6,0   0,0   92   24   20,9   110   15,8   15,2   14,5 
 26-03-2017 07:15:00   6,3   6,3   6,2   0,0   92   6   22,0   110   15,7   15,0   14,5 
 26-03-2017 07:00:00   6,3   6,3   6,2   0,0   92   1   18,7   128   15,7   14,9   14,6 
 26-03-2017 06:45:00   6,4   6,3   6,3   0,0   92   0   22,3   144   15,3   15,0   14,6 
 26-03-2017 06:30:00   6,3   6,1   6,0   0,0   93   0   24,8   147   15,7   15,2   14,7 
 26-03-2017 06:15:00   6,0   5,9   5,8   0,0   94   0   26,3   138   15,3   14,8   14,6 
 26-03-2017 06:00:00   5,8   5,7   5,6   0,0   94   0   26,3   139   15,9   15,4   14,7 
 26-03-2017 05:45:00   5,7   5,7   5,6   0,0   94   0   26,3   131   16,1   15,2   14,7 
 26-03-2017 05:30:00   5,8   5,7   5,7   0,0   93   0   20,5   129   16,1   15,3   14,7 
 26-03-2017 05:15:00   5,9   5,9   5,8   0,0   93   0   19,8   128   16,0   15,5   14,7 
 26-03-2017 05:00:00   6,0   5,9   5,9   0,0   92   0   23,4   126   16,0   15,4   14,7 
 26-03-2017 04:45:00   5,9   5,9   5,8   0,0   92   0   24,8   129   15,7   15,1   14,7 
 26-03-2017 04:30:00   6,1   6,0   5,9   0,0   91   0   31,3   131   15,7   15,2   14,7 
 26-03-2017 04:15:00   6,0   5,9   5,8   0,0   90   0   21,2   125   16,3   15,6   14,7 
 26-03-2017 04:00:00   6,0   5,9   5,8   0,0   90   0   22,3   131   16,1   15,6   14,9 
 26-03-2017 03:45:00   6,1   6,0   5,9   0,0   87   0   28,8   133   16,2   15,2   14,6 
 26-03-2017 03:30:00   6,2   6,2   6,1   0,0   86   0   30,6   134   16,0   15,4   14,7 
 26-03-2017 03:15:00   6,2   6,2   6,1   0,0   86   0   31,7   137   16,3   15,6   14,7 
 26-03-2017 03:00:00   6,1   6,1   6,0   0,0   86   0   24,1   132   16,1   15,3   14,8 
 26-03-2017 01:45:00   6,2   6,1   6,0   0,0   86   0   31,7   133   16,2   15,6   14,8 
 26-03-2017 01:30:00   6,2   6,1   6,0   0,0   85   0   26,3   132   16,3   15,7   14,9 
 26-03-2017 01:15:00   6,1   6,0   5,9   0,0   86   0   25,2   131   16,1   15,3   14,8 
 26-03-2017 01:00:00   6,0   6,0   5,9   0,0   87   0   25,6   131   16,4   15,6   14,9 
 26-03-2017 00:45:00   6,1   6,0   6,0   0,0   87   0   26,3   135   16,3   15,8   15,1 
 26-03-2017 00:30:00   6,3   6,2   6,1   0,0   87   1   27,7   136   16,1   15,3   14,7 
 26-03-2017 00:15:00   6,3   6,2   6,1   0,0   89   0   25,9   138   16,2   15,5   15,0 
 26-03-2017 00:00:00   6,2   6,1   6,1   0,0   89   0   25,6   141   16,4   15,8   15,0 
Datos diarios
Fecha desde Fecha hasta       Visualizar         Exportar Excel  
     
Alfaro - Fecha desde: 19-03-2017 - Fecha hasta: 25-03-2017
Fecha T (C) P (l/m2) Hr (%) Rs (W/m2) VV (km/h) DV Tint.(C)
Max Med Min Acu Med Med Max Med Max Med Min
 25-03-2017   8,9   5,7   4,1   22,7   88   29   45,7   196   20,7   16,6   13,1 
 24-03-2017   12,0   8,0   4,0   0,1   65   221   30,2   168   22,7   19,3   16,1 
 23-03-2017   11,1   7,1   3,7   0,1   63   253   52,2   194   22,0   18,4   15,3 
 22-03-2017   16,6   8,1   4,0   2,9   74   97   58,0   184   20,3   18,4   16,1 
 21-03-2017   14,7   10,2   7,3   0,0   68   155   41,8   331   23,9   20,1   18,0 
 20-03-2017   21,4   12,7   6,9   0,0   67   252   29,5   282   26,2   22,2   18,7 
 19-03-2017   22,6   13,9   7,2   0,0   54   252   36,7   274   26,2   22,0   18,6 
Datos mensuales
        Exportar      
   
Alfaro
Fecha T (C) P (l/m2) Hr (%) Rs (W/m2) VV (km/h) DV Tint.(C)
Max Med Min Acu Med Med Max Med Max Med Min
 Marzo -2017   26,1   11,5   3,7   36,2   65   186   60,1   229   29,5   20,6   -40,0 
 Febrero -2017   19,9   9,4   1,8   36,8   74   112   87,5   209   24,9   19,1   13,1 
 Enero -2017   15,2   5,7   -4,3   10,0   72   86   61,2   267   25,6   18,5   10,2 
 Diciembre -2016   14,8   6,3   -0,9   6,6   92   52   47,2   211   20,5   10,3   5,1 
 Noviembre -2016   20,3   9,7   0,5   46,5   78   82   52,9   236   18,8   12,1   6,6 
 Octubre -2016   27,1   15,2   5,5   19,6   71   137   48,6   219   30,1   19,6   -40,0 
 Septiembre-2016   36,8   20,9   11,0   3,5   59   220   79,9   233   36,9   26,1   -40,0 
 Agosto -2016   35,1   23,2   12,7   2,4   51   303   56,2   225   37,1   28,8   19,4 
 Julio -2016   39,1   22,7   11,5   46,6   56   318   57,6   245   38,5   28,2   18,8 
 Junio -2016   35,6   20,2   10,0   8,5   56   325   57,6   243   37,2   25,7   17,1 
 Mayo -2016   29,7   15,7   5,6   45,0   63   270   60,1   217   31,5   21,4   12,7 
 Abril -2016   23,9   12,0   2,5   16,3   62   227   78,8   238   26,2   18,6   11,4 
PARÁMETROS
Desc. Abr. Descripción
T Temperatura del aire
P Precipitación acumulada
Hr Humedad relativa del aire
Rs Radiación solar
VV Velocidad del viento
DV Dirección del viento
Tint Temperatura interior
 
FUNCIONES
Desc. Abr. Descripción
Max Máxima
Med Media
Min Mínima
Acu Acumulado